• In Österreich
  • Länderverzeichnis
  • Für 7 Tage
  • Wassertemperatur
  • Satellitenkarten
  • Wetterkarte
  • News
  • Widgets
  • user-avatar
    Anmelden

    Stündliche Wetter Mutare

    Heute, 26 September, Mittwoch

    Zeit Temperatur Niederschläge Wind Luftdruck Luftfeuchtigkeit
    00:00 +20°C° 0 mm 1 m/S 654 mmHg 55%
    01:00 +19°C° 0 mm 1 m/S 654 mmHg 58%
    02:00 +19°C° 0 mm 1 m/S 654 mmHg 63%
    03:00 +18°C° 0 mm 1 m/S 654 mmHg 65%
    04:00 +18°C° 0 mm 1 m/S 654 mmHg 67%
    05:00 +18°C° 0 mm 1 m/S 654 mmHg 69%
    06:00 +20°C° 0 mm 1 m/S 654 mmHg 59%
    07:00 +23°C° 0 mm 1 m/S 655 mmHg 49%
    08:00 +26°C° 0 mm 2 m/S 657 mmHg 37%
    09:00 +29°C° 0 mm 2 m/S 657 mmHg 30%
    10:00 +32°C° 0 mm 1 m/S 657 mmHg 24%
    11:00 +35°C° 0 mm 1 m/S 658 mmHg 17%
    12:00 +36°C° 0 mm 2 m/S 657 mmHg 16%
    13:00 +36°C° 0 mm 2 m/S 657 mmHg 14%
    14:00 +36°C° 0 mm 2 m/S 656 mmHg 13%
    15:00 +35°C° 0 mm 2 m/S 655 mmHg 15%
    16:00 +34°C° 0 mm 2 m/S 655 mmHg 16%
    17:00 +33°C° 0 mm 3 m/S 654 mmHg 17%
    18:00 +29°C° 0 mm 2 m/S 654 mmHg 20%
    19:00 +27°C° 0 mm 2 m/S 654 mmHg 24%
    20:00 +25°C° 0 mm 1 m/S 654 mmHg 27%
    21:00 +24°C° 0 mm 1 m/S 654 mmHg 30%
    22:00 +23°C° 0 mm 1 m/S 654 mmHg 34%
    23:00 +22°C° 0 mm 1 m/S 655 mmHg 37%

    Morgen, 27 September, Donnerstag

    Zeit Temperatur Niederschläge Wind Luftdruck Luftfeuchtigkeit
    00:00 +22°C° 0 mm 1 m/S 654 mmHg 41%
    01:00 +21°C° 0 mm 1 m/S 654 mmHg 45%
    02:00 +20°C° 0 mm 1 m/S 653 mmHg 49%
    03:00 +20°C° 0 mm 1 m/S 653 mmHg 51%
    04:00 +20°C° 0 mm 1 m/S 653 mmHg 53%
    05:00 +19°C° 0 mm 1 m/S 653 mmHg 55%
    06:00 +22°C° 0 mm 1 m/S 655 mmHg 48%
    07:00 +25°C° 0 mm 1 m/S 656 mmHg 40%
    08:00 +27°C° 0 mm 1 m/S 657 mmHg 32%
    09:00 +29°C° 0 mm 2 m/S 657 mmHg 28%
    10:00 +31°C° 0 mm 2 m/S 657 mmHg 23%
    11:00 +34°C° 0 mm 3 m/S 657 mmHg 19%
    12:00 +34°C° 0 mm 3 m/S 657 mmHg 19%
    13:00 +34°C° 0 mm 3 m/S 656 mmHg 18%
    14:00 +35°C° 0 mm 4 m/S 656 mmHg 18%
    15:00 +33°C° 0 mm 4 m/S 655 mmHg 20%
    16:00 +32°C° 0 mm 4 m/S 655 mmHg 22%
    17:00 +30°C° 0 mm 4 m/S 654 mmHg 24%
    18:00 +28°C° 0 mm 3 m/S 655 mmHg 29%
    19:00 +26°C° 0 mm 3 m/S 655 mmHg 34%
    20:00 +24°C° 0 mm 2 m/S 655 mmHg 39%
    21:00 +23°C° 0 mm 2 m/S 655 mmHg 45%
    22:00 +21°C° 0 mm 2 m/S 655 mmHg 51%
    23:00 +21°C° 0 mm 1 m/S 655 mmHg 56%

    übermorgen, 28 September, Freitag

    Zeit Temperatur Niederschläge Wind Luftdruck Luftfeuchtigkeit
    00:00 +21°C° 0 mm 1 m/S 655 mmHg 58%
    01:00 +20°C° 0 mm 1 m/S 654 mmHg 59%
    02:00 +19°C° 0 mm 1 m/S 654 mmHg 61%
    03:00 +19°C° 0 mm 1 m/S 654 mmHg 61%
    04:00 +18°C° 0 mm 1 m/S 654 mmHg 61%
    05:00 +18°C° 0 mm 1 m/S 653 mmHg 60%
    06:00 +21°C° 0 mm 1 m/S 655 mmHg 51%
    07:00 +23°C° 0 mm 1 m/S 656 mmHg 41%
    08:00 +26°C° 0 mm 1 m/S 657 mmHg 32%
    09:00 +28°C° 0 mm 2 m/S 657 mmHg 27%
    10:00 +30°C° 0 mm 2 m/S 657 mmHg 23%
    11:00 +32°C° 0 mm 2 m/S 657 mmHg 19%
    12:00 +34°C° 0 mm 3 m/S 656 mmHg 18%
    13:00 +34°C° 0 mm 3 m/S 656 mmHg 18%
    14:00 +34°C° 0 mm 3 m/S 655 mmHg 17%
    15:00 +33°C° 0 mm 3 m/S 655 mmHg 20%
    16:00 +32°C° 0 mm 4 m/S 654 mmHg 23%
    17:00 +30°C° 0 mm 4 m/S 654 mmHg 25%
    18:00 +28°C° 0 mm 3 m/S 654 mmHg 30%
    19:00 +26°C° 0 mm 3 m/S 654 mmHg 35%
    20:00 +25°C° 0 mm 2 m/S 655 mmHg 40%
    21:00 +24°C° 0 mm 2 m/S 654 mmHg 46%
    22:00 +23°C° 0 mm 2 m/S 654 mmHg 52%
    23:00 +21°C° 0 mm 1 m/S 654 mmHg 59%

    29 September, Samstag

    Zeit Temperatur Niederschläge Wind Luftdruck Luftfeuchtigkeit
    00:00 +21°C° 0 mm 1 m/S 654 mmHg 63%
    01:00 +20°C° 0 mm 1 m/S 653 mmHg 67%
    02:00 +19°C° 0 mm 1 m/S 653 mmHg 70%
    03:00 +19°C° 0 mm 1 m/S 653 mmHg 72%
    04:00 +19°C° 0 mm 1 m/S 653 mmHg 74%
    05:00 +18°C° 0 mm 1 m/S 653 mmHg 76%
    06:00 +21°C° 0 mm 1 m/S 655 mmHg 64%
    07:00 +24°C° 0 mm 1 m/S 656 mmHg 52%
    08:00 +26°C° 0 mm 1 m/S 658 mmHg 40%
    09:00 +28°C° 0 mm 2 m/S 658 mmHg 35%
    10:00 +29°C° 0 mm 3 m/S 658 mmHg 30%
    11:00 +32°C° 0 mm 4 m/S 658 mmHg 24%
    12:00 +30°C° 0 mm 4 m/S 658 mmHg 25%
    13:00 +30°C° 0 mm 4 m/S 657 mmHg 26%
    14:00 +29°C° 0 mm 5 m/S 657 mmHg 27%
    15:00 +28°C° 0 mm 5 m/S 657 mmHg 29%
    16:00 +28°C° 0 mm 5 m/S 657 mmHg 31%
    17:00 +27°C° 0 mm 5 m/S 657 mmHg 34%
    18:00 +25°C° 0 mm 5 m/S 658 mmHg 39%
    19:00 +23°C° 0 mm 4 m/S 658 mmHg 44%
    20:00 +21°C° 0 mm 3 m/S 658 mmHg 50%
    21:00 +20°C° 0 mm 3 m/S 658 mmHg 53%
    22:00 +19°C° 0 mm 3 m/S 659 mmHg 56%
    23:00 +18°C° 0 mm 3 m/S 659 mmHg 59%

    30 September, Sonntag

    Zeit Temperatur Niederschläge Wind Luftdruck Luftfeuchtigkeit
    00:00 +17°C° 0 mm 3 m/S 658 mmHg 65%
    01:00 +16°C° 0 mm 2 m/S 658 mmHg 71%
    02:00 +16°C° 0 mm 2 m/S 658 mmHg 77%
    03:00 +16°C° 0.1 mm 2 m/S 658 mmHg 78%
    04:00 +16°C° 0.1 mm 2 m/S 658 mmHg 80%
    05:00 +16°C° 0.1 mm 2 m/S 658 mmHg 81%
    06:00 +16°C° 0.2 mm 2 m/S 659 mmHg 77%
    07:00 +17°C° 0.2 mm 2 m/S 660 mmHg 74%
    08:00 +17°C° 0.2 mm 3 m/S 660 mmHg 70%
    09:00 +18°C° 0 mm 3 m/S 660 mmHg 63%
    10:00 +20°C° 0 mm 3 m/S 661 mmHg 55%
    11:00 +21°C° 0 mm 4 m/S 661 mmHg 47%
    12:00 +22°C° 0 mm 4 m/S 660 mmHg 45%
    13:00 +22°C° 0 mm 4 m/S 660 mmHg 44%
    14:00 +23°C° 0 mm 4 m/S 659 mmHg 42%
    15:00 +22°C° 0 mm 4 m/S 659 mmHg 46%
    16:00 +21°C° 0 mm 4 m/S 659 mmHg 49%
    17:00 +19°C° 0 mm 4 m/S 658 mmHg 53%
    18:00 +18°C° 0 mm 3 m/S 659 mmHg 59%
    19:00 +17°C° 0 mm 2 m/S 659 mmHg 65%
    20:00 +15°C° 0 mm 2 m/S 659 mmHg 71%
    21:00 +15°C° 0 mm 1 m/S 659 mmHg 74%
    22:00 +14°C° 0 mm 1 m/S 659 mmHg 77%
    23:00 +13°C° 0 mm 1 m/S 658 mmHg 80%

    1 Oktober, Montag

    Zeit Temperatur Niederschläge Wind Luftdruck Luftfeuchtigkeit
    00:00 +13°C° 0 mm 1 m/S 658 mmHg 81%
    01:00 +12°C° 0 mm 1 m/S 657 mmHg 83%
    02:00 +12°C° 0 mm 1 m/S 657 mmHg 85%
    03:00 +12°C° 0 mm 1 m/S 657 mmHg 86%
    04:00 +12°C° 0 mm 1 m/S 657 mmHg 87%
    05:00 +11°C° 0 mm 1 m/S 657 mmHg 88%
    06:00 +13°C° 0 mm 1 m/S 658 mmHg 79%
    07:00 +15°C° 0 mm 1 m/S 659 mmHg 69%
    08:00 +18°C° 0 mm 1 m/S 659 mmHg 60%
    09:00 +19°C° 0 mm 2 m/S 659 mmHg 53%
    10:00 +21°C° 0 mm 2 m/S 660 mmHg 46%
    11:00 +23°C° 0 mm 2 m/S 660 mmHg 38%
    12:00 +24°C° 0 mm 3 m/S 659 mmHg 35%
    13:00 +25°C° 0 mm 3 m/S 659 mmHg 31%
    14:00 +26°C° 0 mm 3 m/S 658 mmHg 28%
    15:00 +25°C° 0 mm 3 m/S 658 mmHg 30%
    16:00 +24°C° 0 mm 3 m/S 657 mmHg 33%
    17:00 +22°C° 0 mm 3 m/S 657 mmHg 35%
    18:00 +20°C° 0 mm 2 m/S 657 mmHg 43%
    19:00 +18°C° 0 mm 2 m/S 656 mmHg 51%
    20:00 +16°C° 0 mm 1 m/S 656 mmHg 60%
    21:00 +15°C° 0 mm 1 m/S 656 mmHg 64%
    22:00 +14°C° 0 mm 1 m/S 656 mmHg 69%
    23:00 +13°C° 0 mm 1 m/S 656 mmHg 73%
    Mehr zeigen